"startDT [UTC]","vpos","CH4 [ppm]","stdev(CH4) [ppm]","CO2 [ppm]","stdev(CO2) [ppm]","H2O_reported [%]","stdev(H2O_reported)","CavityPressure [torr]","CavityTemp [C]","OutletValve","CH4_dry [ppm]","CO2_dry [ppm]","DasTemp [C]","EtalonTemp [C]","WarmBoxTemp [C]","MPVPosition","T_ECpre [C]","T_EC1 [C]","T_EC2 [C]","p_inlet [hPa]","p_in [hPa]","p_out [hPa]","T_inlet [C]","RH_inlet [%]","dwpt_inlet [C]","T_vent [C]","RH_vent [%]","dwpt_vent [C]","flow_vent [l min-1]","flow_inlet [l min-1]","dwpt_sample [C]","T_room [C]"
2015-10-08 00:00:00,0.0,1.93781,0.00032,399.178,0.029,0.3124,0.0019,140.001,45.000,31858.77164,1.94379,400.689,36.195,45.068,45.000,0.00,0.09,-272.74,-272.81,-8,525,-952,21.1,9.6,-12.3,21.3,9.6,-12.0,5.73,1.89,-6.7,27.9
2015-10-08 00:01:00,0.0,1.93816,0.00041,399.205,0.029,0.3125,0.0018,140.001,45.000,31859.80158,1.94415,400.717,36.198,45.068,45.001,0.00,0.09,-272.74,-272.80,-8,525,-952,21.0,9.6,-12.3,21.3,9.6,-12.0,5.73,1.83,-6.7,27.9
2015-10-08 00:02:00,0.0,1.93855,0.00038,399.213,0.042,0.3120,0.0021,140.002,45.000,31858.84526,1.94455,400.725,36.216,45.068,45.000,0.00,0.09,-272.74,-272.79,-8,525,-952,21.1,9.6,-12.3,21.3,9.6,-12.0,5.73,2.00,-6.7,27.9
2015-10-08 00:03:00,0.0,1.93853,0.00036,399.173,0.044,0.3151,0.0018,139.998,45.000,31858.74740,1.94459,400.698,36.204,45.068,45.000,0.00,0.09,-272.75,-272.80,-8,525,-952,21.1,9.6,-12.2,21.3,9.6,-12.0,5.73,2.12,-6.7,27.9
2015-10-08 00:04:00,0.0,1.93865,0.00044,399.209,0.039,0.3129,0.0013,139.998,45.000,31858.41455,1.94467,400.724,36.209,45.068,45.000,0.00,0.09,-272.74,-272.81,-8,525,-952,21.0,9.6,-12.3,21.3,9.7,-12.0,5.73,2.02,-6.7,27.9
2015-10-08 00:05:00,0.0,1.93905,0.00034,399.235,0.031,0.3121,0.0013,139.999,45.000,31856.85643,1.94502,400.746,36.235,45.068,45.000,0.00,0.09,-272.74,-272.80,-9,525,-952,21.1,9.5,-12.3,21.3,9.6,-12.0,5.73,1.84,-6.7,27.9
2015-10-08 00:06:00,0.0,1.93890,0.00040,399.281,0.032,0.3118,0.0016,139.998,45.000,31857.46002,1.94495,400.792,36.237,45.068,45.000,0.00,0.09,-272.74,-272.80,-8,525,-952,21.1,9.5,-12.3,21.3,9.6,-12.0,5.73,1.86,-6.7,27.9
2015-10-08 00:07:00,0.0,1.93977,0.00075,399.333,0.069,0.3100,0.0021,140.002,45.000,31860.41767,1.94567,400.834,36.248,45.068,45.000,0.00,0.09,-272.75,-272.81,-8,525,-952,21.0,9.5,-12.4,21.3,9.6,-12.1,5.73,2.05,-6.7,27.9
2015-10-08 00:08:00,0.0,1.93874,0.00057,399.225,0.049,0.3121,0.0029,140.000,45.000,31860.19120,1.94478,400.737,36.231,45.068,45.000,0.00,0.09,-272.75,-272.81,-7,525,-952,21.1,9.6,-12.3,21.3,9.6,-12.1,5.73,2.11,-6.7,27.8
2015-10-08 00:09:00,0.0,1.93931,0.00032,399.269,0.040,0.3114,0.0019,139.999,45.000,31859.87772,1.94531,400.778,36.242,45.068,45.000,0.00,0.09,-272.74,-272.80,-8,525,-952,21.1,9.5,-12.3,21.3,9.6,-12.0,5.73,1.96,-6.7,27.8
2015-10-08 00:10:00,0.0,1.93956,0.00042,399.284,0.035,0.3115,0.0016,139.999,45.000,31862.18546,1.94555,400.791,36.243,45.068,45.000,0.00,0.09,-272.74,-272.80,-8,525,-952,21.1,9.5,-12.3,21.3,9.6,-12.0,5.73,1.83,-6.7,27.8
2015-10-08 00:11:00,0.0,1.93968,0.00036,399.257,0.040,0.3107,0.0019,139.999,45.000,31864.11672,1.94563,400.763,36.234,45.068,45.000,0.00,0.09,-272.75,-272.80,-8,525,-952,21.1,9.5,-12.3,21.3,9.6,-12.1,5.73,1.90,-6.7,27.8
2015-10-08 00:12:00,0.0,1.94037,0.00051,399.308,0.054,0.3091,0.0021,140.001,45.000,31864.22353,1.94633,400.805,36.224,45.068,45.000,0.00,0.09,-272.75,-272.80,-9,525,-952,21.1,9.5,-12.4,21.3,9.5,-12.1,5.73,2.08,-6.7,27.9
2015-10-08 00:13:00,0.0,1.93956,0.00048,399.225,0.051,0.3115,0.0017,140.001,45.000,31864.26963,1.94557,400.735,36.222,45.068,45.000,0.00,0.09,-272.75,-272.80,-8,525,-952,21.1,9.5,-12.3,21.4,9.5,-12.1,5.73,2.10,-6.7,27.8
2015-10-08 00:14:00,0.0,1.93989,0.00032,399.178,0.034,0.3126,0.0019,140.001,45.000,31862.78027,1.94590,400.693,36.249,45.068,45.000,0.00,0.09,-272.74,-272.81,-8,525,-952,21.1,9.5,-12.3,21.4,9.6,-12.0,5.73,1.92,-6.7,27.8
2015-10-08 00:15:00,0.0,1.94005,0.00040,399.207,0.054,0.3125,0.0021,139.998,45.000,31864.01931,1.94604,400.718,36.251,45.068,45.000,0.00,0.09,-272.73,-272.80,-7,525,-952,21.2,9.5,-12.3,21.4,9.6,-12.0,5.73,1.82,-6.7,27.9
2015-10-08 00:16:00,0.0,1.94189,0.00101,399.419,0.103,0.3068,0.0027,140.000,45.000,31865.74567,1.94774,400.903,36.252,45.068,45.000,0.00,0.09,-272.74,-272.80,-8,525,-952,21.2,9.4,-12.5,21.4,9.5,-12.1,5.73,1.95,-6.7,27.9
2015-10-08 00:17:00,0.0,1.94488,0.00130,399.606,0.082,0.3029,0.0023,139.999,45.000,31865.01056,1.95062,401.072,36.251,45.068,45.000,0.00,0.09,-272.75,-272.80,-8,525,-952,21.1,9.2,-12.7,21.4,9.3,-12.3,5.73,2.11,-6.7,27.9
2015-10-08 00:18:00,0.0,1.94775,0.00132,399.741,0.074,0.2973,0.0031,140.000,45.000,31865.51259,1.95339,401.181,36.253,45.068,45.000,0.00,0.09,-272.74,-272.80,-9,525,-953,21.2,9.1,-12.8,21.4,9.2,-12.5,5.73,2.06,-6.7,27.9
2015-10-08 00:19:00,0.0,1.94651,0.00104,399.649,0.072,0.2956,0.0027,139.999,45.000,31866.73854,1.95234,401.083,36.274,45.068,45.000,0.00,0.09,-272.74,-272.81,-8,526,-953,21.2,9.0,-12.9,21.4,9.1,-12.6,5.73,1.87,-6.7,27.9
2015-10-08 00:20:00,0.0,1.94596,0.00108,399.668,0.067,0.2954,0.0019,139.998,45.000,31867.39770,1.95160,401.099,36.264,45.068,45.000,0.00,0.09,-272.74,-272.80,-8,525,-953,21.2,9.0,-12.9,21.4,9.2,-12.6,5.73,1.83,-6.7,27.9
2015-10-08 00:21:00,0.0,1.94591,0.00056,399.649,0.046,0.2978,0.0021,140.001,45.000,31868.30469,1.95168,401.092,36.251,45.068,45.000,0.00,0.09,-272.75,-272.80,-8,526,-953,21.2,9.1,-12.9,21.4,9.2,-12.6,5.73,2.02,-6.7,27.9
2015-10-08 00:22:00,0.0,1.94617,0.00046,399.660,0.039,0.2983,0.0014,139.997,45.000,31866.75060,1.95196,401.106,36.263,45.068,45.000,0.00,0.09,-272.74,-272.80,-8,525,-952,21.2,9.1,-12.8,21.4,9.2,-12.6,5.73,2.12,-6.7,27.9
2015-10-08 00:23:00,0.0,1.94555,0.00085,399.608,0.074,0.3002,0.0019,139.998,45.000,31869.53715,1.95130,401.060,36.260,45.068,45.000,0.00,0.09,-272.74,-272.80,-8,525,-953,21.2,9.1,-12.8,21.4,9.2,-12.5,5.73,1.99,-6.6,27.9
2015-10-08 00:24:00,0.0,1.94639,0.00115,399.682,0.074,0.2984,0.0022,140.001,45.000,31869.18661,1.95219,401.130,36.254,45.068,45.000,0.00,0.09,-272.75,-272.80,-9,525,-953,21.2,9.1,-12.8,21.4,9.2,-12.5,5.73,1.83,-6.6,27.9
2015-10-08 00:25:00,0.0,1.94604,0.00168,399.637,0.094,0.3023,0.0025,139.999,45.000,31868.89734,1.95192,401.101,36.252,45.068,45.000,0.00,0.09,-272.74,-272.80,-9,526,-953,21.2,9.2,-12.7,21.4,9.3,-12.4,5.73,1.89,-6.6,27.9
2015-10-08 00:26:00,0.0,1.94526,0.00079,399.635,0.054,0.3019,0.0020,140.000,45.000,31869.70423,1.95110,401.099,36.256,45.068,45.000,0.00,0.09,-272.75,-272.79,-8,526,-953,21.2,9.2,-12.7,21.4,9.3,-12.4,5.73,2.08,-6.6,27.9
2015-10-08 00:27:00,0.0,1.94344,0.00087,399.497,0.059,0.3073,0.0022,140.000,45.000,31871.49608,1.94937,400.985,36.298,45.068,45.000,0.00,0.09,-272.75,-272.80,-8,526,-953,21.2,9.3,-12.5,21.5,9.4,-12.3,5.73,2.10,-6.6,27.9
2015-10-08 00:28:00,0.0,1.94455,0.00065,399.547,0.035,0.3054,0.0023,139.998,45.000,31872.07231,1.95042,401.026,36.313,45.068,45.000,0.00,0.09,-272.74,-272.80,-8,526,-953,21.2,9.3,-12.5,21.4,9.4,-12.2,5.73,1.91,-6.6,27.9
2015-10-08 00:29:00,0.0,1.94316,0.00108,399.473,0.050,0.3091,0.0027,140.001,45.000,31871.68882,1.94914,400.971,36.324,45.068,45.000,0.00,0.09,-272.73,-272.80,-8,525,-953,21.2,9.4,-12.4,21.5,9.4,-12.2,5.73,1.82,-6.6,27.9
2015-10-08 00:30:00,0.0,1.94396,0.00050,399.523,0.033,0.3087,0.0016,140.000,45.000,31872.05315,1.94989,401.019,36.331,45.068,45.000,0.00,0.09,-272.75,-272.80,-9,526,-953,21.2,9.3,-12.4,21.5,9.5,-12.1,5.73,1.97,-6.6,27.9
2015-10-08 00:31:00,0.0,1.94421,0.00080,399.529,0.054,0.3083,0.0023,140.000,45.000,31870.74919,1.95019,401.022,36.351,45.067,45.000,0.00,0.09,-272.75,-272.81,-9,526,-953,21.2,9.3,-12.4,21.5,9.4,-12.2,5.73,2.12,-6.6,27.9
2015-10-08 00:32:00,0.0,1.94385,0.00041,399.518,0.029,0.3103,0.0018,140.001,45.000,31871.09643,1.94984,401.022,36.325,45.067,45.000,0.00,0.09,-272.74,-272.80,-8,526,-953,21.2,9.4,-12.4,21.5,9.4,-12.1,5.73,2.03,-6.6,27.9
2015-10-08 00:33:00,0.0,1.94335,0.00049,399.473,0.037,0.3114,0.0021,139.997,45.000,31870.99944,1.94935,400.982,36.346,45.068,45.000,0.00,0.09,-272.74,-272.80,-8,526,-953,21.3,9.4,-12.3,21.5,9.5,-12.1,5.73,1.83,-6.6,27.9
2015-10-08 00:34:00,0.0,1.94349,0.00039,399.469,0.039,0.3109,0.0019,140.001,45.000,31870.89691,1.94948,400.975,36.336,45.068,45.000,0.00,0.09,-272.75,-272.81,-8,526,-953,21.3,9.4,-12.4,21.5,9.5,-12.1,5.73,1.87,-6.6,27.9
2015-10-08 00:35:00,0.0,1.94392,0.00038,399.488,0.049,0.3100,0.0015,139.998,45.000,31869.57485,1.94991,400.991,36.324,45.068,45.000,0.00,0.09,-272.75,-272.81,-8,526,-953,21.3,9.4,-12.4,21.5,9.5,-12.1,5.73,2.06,-6.6,27.9
2015-10-08 00:36:00,0.0,1.94371,0.00080,399.420,0.055,0.3114,0.0017,140.002,45.000,31871.12669,1.94969,400.929,36.318,45.068,45.000,0.00,0.09,-272.74,-272.80,-9,526,-953,21.3,9.4,-12.3,21.5,9.5,-12.1,5.73,2.11,-6.6,27.9
2015-10-08 00:37:00,0.0,1.94393,0.00036,399.411,0.037,0.3116,0.0013,140.002,45.000,31872.23583,1.94997,400.921,36.320,45.068,45.000,0.00,0.09,-272.74,-272.81,-9,526,-953,21.3,9.4,-12.3,21.5,9.5,-12.1,5.73,1.92,-6.6,27.9
2015-10-08 00:38:00,0.0,1.94387,0.00055,399.392,0.045,0.3121,0.0019,140.002,45.000,31874.47011,1.94982,400.904,36.313,45.068,45.000,0.00,0.09,-272.75,-272.80,-9,526,-953,21.3,9.4,-12.3,21.5,9.5,-12.0,5.73,1.81,-6.6,28.0
2015-10-08 00:39:00,0.0,1.94441,0.00060,399.427,0.036,0.3102,0.0016,140.000,45.000,31875.58429,1.95043,400.930,36.314,45.068,45.000,0.00,0.09,-272.74,-272.79,-8,526,-953,21.3,9.4,-12.4,21.5,9.5,-12.1,5.73,1.96,-6.6,27.9
2015-10-08 00:40:00,0.0,1.94436,0.00063,399.423,0.054,0.3104,0.0012,139.999,45.000,31876.33810,1.95040,400.928,36.313,45.068,45.000,0.00,0.09,-272.75,-272.80,-8,526,-953,21.3,9.4,-12.4,21.5,9.5,-12.1,5.73,2.13,-6.6,27.9
2015-10-08 00:41:00,0.0,1.94426,0.00057,399.400,0.057,0.3126,0.0019,140.000,45.000,31876.52101,1.95024,400.910,36.312,45.068,45.000,0.00,0.09,-272.75,-272.81,-8,526,-953,21.3,9.4,-12.3,21.5,9.5,-12.0,5.73,2.02,-6.6,28.0
2015-10-08 00:42:00,0.0,1.94417,0.00088,399.384,0.059,0.3119,0.0017,140.000,45.000,31876.75967,1.95016,400.896,36.312,45.068,45.000,0.00,0.09,-272.74,-272.80,-9,526,-953,21.3,9.4,-12.3,21.5,9.5,-12.0,5.73,1.84,-6.6,28.0
2015-10-08 00:43:00,0.0,1.94539,0.00068,399.490,0.048,0.3110,0.0021,139.999,45.000,31876.42165,1.95142,400.999,36.312,45.068,45.000,0.00,0.09,-272.74,-272.80,-9,526,-953,21.3,9.4,-12.4,21.5,9.5,-12.0,5.73,1.86,-6.6,28.0
2015-10-08 00:44:00,0.0,1.94407,0.00080,399.355,0.062,0.3130,0.0025,140.002,45.000,31877.48254,1.95008,400.870,36.313,45.068,45.000,0.00,0.09,-272.74,-272.80,-9,526,-953,21.3,9.4,-12.3,21.5,9.5,-12.0,5.73,2.06,-6.6,28.0
2015-10-08 00:45:00,0.0,1.94503,0.00078,399.389,0.054,0.3126,0.0022,140.000,45.000,31877.80452,1.95108,400.903,36.313,45.068,45.000,0.00,0.09,-272.74,-272.81,-8,526,-953,21.3,9.4,-12.3,21.5,9.5,-12.0,5.73,2.11,-6.6,28.0
2015-10-08 00:46:00,0.0,1.94468,0.00114,399.320,0.094,0.3131,0.0018,140.001,45.000,31880.30971,1.95071,400.838,36.318,45.068,45.000,0.00,0.09,-272.73,-272.80,-8,526,-953,21.3,9.4,-12.3,21.5,9.5,-12.0,5.73,1.91,-6.5,28.0
2015-10-08 00:47:00,0.0,1.94616,0.00058,399.410,0.052,0.3099,0.0021,140.001,45.000,31879.37288,1.95212,400.911,36.356,45.068,45.000,0.00,0.09,-272.74,-272.80,-8,526,-953,21.3,9.3,-12.4,21.5,9.5,-12.1,5.73,1.81,-6.6,28.0
2015-10-08 00:48:00,0.0,1.94543,0.00075,399.301,0.082,0.3112,0.0018,139.999,45.000,31880.77746,1.95139,400.808,36.376,45.068,45.000,0.00,0.09,-272.75,-272.80,-9,526,-953,21.3,9.4,-12.4,21.6,9.4,-12.1,5.73,1.98,-6.5,28.0
2015-10-08 00:49:00,0.0,1.94516,0.00071,399.268,0.064,0.3122,0.0017,140.001,45.000,31880.89772,1.95126,400.781,36.395,45.068,45.000,0.00,0.09,-272.75,-272.80,-9,526,-953,21.3,9.4,-12.3,21.6,9.5,-12.0,5.73,2.12,-6.5,28.0
2015-10-08 00:50:00,0.0,1.94296,0.00126,399.117,0.125,0.3165,0.0039,139.999,45.000,31879.01620,1.94920,400.656,36.428,45.068,45.000,0.00,0.09,-272.74,-272.81,-9,527,-953,21.3,9.5,-12.2,21.6,9.5,-11.9,5.73,2.01,-6.5,28.0
2015-10-08 00:51:00,0.0,1.94128,0.00048,398.905,0.054,0.3237,0.0020,139.999,45.000,31880.21623,1.94750,400.470,36.435,45.067,45.000,0.00,0.09,-272.74,-272.81,-8,526,-953,21.4,9.7,-11.9,21.6,9.7,-11.7,5.73,1.82,-6.6,28.0
2015-10-08 00:52:00,0.0,1.94134,0.00052,398.910,0.052,0.3233,0.0026,140.001,45.000,31880.22458,1.94760,400.475,36.436,45.067,45.000,0.00,0.09,-272.74,-272.80,-8,526,-953,21.4,9.7,-11.9,21.6,9.8,-11.6,5.73,1.89,-6.5,28.0
2015-10-08 00:53:00,0.0,1.94077,0.00050,398.885,0.050,0.3246,0.0016,140.000,45.000,31880.51804,1.94705,400.457,36.438,45.068,45.000,0.00,0.09,-272.75,-272.80,-8,526,-953,21.4,9.7,-11.9,21.6,9.8,-11.6,5.73,2.09,-6.5,28.0
2015-10-08 00:54:00,0.0,1.94063,0.00039,398.863,0.032,0.3244,0.0019,140.001,45.000,31882.37722,1.94685,400.432,36.438,45.068,45.000,0.00,0.09,-272.75,-272.80,-9,526,-953,21.4,9.7,-11.9,21.6,9.8,-11.5,5.73,2.08,-6.5,28.0
2015-10-08 00:55:00,0.0,1.94073,0.00043,398.897,0.037,0.3235,0.0015,140.001,45.000,31884.51880,1.94698,400.463,36.433,45.068,45.000,0.00,0.09,-272.74,-272.80,-9,526,-953,21.4,9.7,-11.9,21.6,9.8,-11.6,5.73,1.88,-6.5,28.0
2015-10-08 00:56:00,0.0,1.94053,0.00056,398.873,0.063,0.3240,0.0012,140.000,45.000,31884.75022,1.94678,400.441,36.438,45.068,45.000,0.00,0.09,-272.74,-272.80,-9,527,-953,21.4,9.7,-11.9,21.6,9.8,-11.6,5.73,1.83,-6.5,28.0
2015-10-08 00:57:00,0.0,1.94062,0.00050,398.874,0.047,0.3238,0.0019,139.999,45.000,31886.03286,1.94684,400.442,36.435,45.068,45.000,0.00,0.09,-272.75,-272.80,-8,526,-953,21.4,9.6,-11.9,21.6,9.7,-11.6,5.73,2.03,-6.5,28.1
2015-10-08 00:58:00,0.0,1.93987,0.00053,398.795,0.057,0.3231,0.0014,140.002,45.000,31888.95041,1.94612,400.359,36.428,45.068,45.000,0.00,0.09,-272.74,-272.81,-8,526,-953,21.4,9.7,-11.9,21.6,9.8,-11.6,5.73,2.12,-6.5,28.1
2015-10-08 00:59:00,0.0,1.93983,0.00043,398.735,0.048,0.3239,0.0015,140.000,45.000,31888.85361,1.94606,400.302,36.417,45.068,45.000,0.00,0.09,-272.73,-272.80,-8,526,-953,21.4,9.7,-11.9,21.6,9.8,-11.6,5.73,1.93,-6.5,28.1
2015-10-08 01:00:00,0.0,1.93952,0.00051,398.666,0.054,0.3239,0.0016,140.002,45.000,31888.79033,1.94575,400.234,36.420,45.068,45.000,0.00,0.09,-272.74,-272.80,-9,527,-953,21.4,9.7,-11.9,21.6,9.8,-11.6,5.73,1.81,-6.5,28.1
2015-10-08 01:01:00,0.0,1.93981,0.00048,398.695,0.040,0.3238,0.0022,139.999,45.000,31888.39210,1.94602,400.261,36.426,45.068,45.000,0.00,0.09,-272.75,-272.81,-9,527,-953,21.4,9.7,-11.9,21.6,9.8,-11.6,5.73,1.98,-6.5,28.1
2015-10-08 01:02:00,0.0,1.93978,0.00057,398.685,0.065,0.3227,0.0023,139.997,45.000,31885.09932,1.94604,400.249,36.425,45.068,45.000,0.00,0.09,-272.75,-272.80,-8,527,-953,21.4,9.7,-11.9,21.6,9.7,-11.6,5.73,2.13,-6.5,28.1
2015-10-08 01:03:00,0.0,1.93949,0.00044,398.591,0.052,0.3243,0.0019,140.000,45.000,31886.52805,1.94572,400.159,36.430,45.068,45.000,0.00,0.09,-272.74,-272.81,-8,527,-953,21.4,9.7,-11.9,21.6,9.8,-11.6,5.73,1.99,-6.5,28.1
2015-10-08 01:04:00,0.0,1.93962,0.00046,398.578,0.043,0.3237,0.0019,139.996,45.000,31886.70820,1.94587,400.144,36.437,45.068,45.000,0.00,0.09,-272.74,-272.81,-8,526,-953,21.4,9.7,-11.9,21.6,9.8,-11.6,5.73,1.80,-6.5,28.1
2015-10-08 01:05:00,0.0,1.93953,0.00055,398.611,0.053,0.3235,0.0014,140.001,45.000,31888.32107,1.94575,400.176,36.438,45.068,45.000,0.00,0.09,-272.74,-272.80,-9,526,-953,21.4,9.7,-11.9,21.6,9.8,-11.6,5.73,1.92,-6.5,28.0
2015-10-08 01:06:00,0.0,1.93937,0.00044,398.565,0.041,0.3239,0.0017,139.999,45.000,31887.84783,1.94562,400.132,36.439,45.068,45.000,0.00,0.09,-272.74,-272.80,-9,526,-953,21.4,9.7,-11.9,21.6,9.8,-11.6,5.73,2.11,-6.5,28.1
2015-10-08 01:07:00,0.0,1.93930,0.00031,398.588,0.048,0.3231,0.0029,139.997,45.000,31888.47133,1.94555,400.149,36.472,45.068,45.000,0.00,0.09,-272.74,-272.81,-9,527,-953,21.4,9.6,-12.0,21.6,9.7,-11.7,5.73,2.06,-6.5,28.0
2015-10-08 01:08:00,0.0,1.93930,0.00032,398.707,0.054,0.3222,0.0019,139.999,45.000,31889.55594,1.94549,400.263,36.493,45.068,45.000,0.00,0.32,-270.98,-272.02,-8,527,-953,21.4,9.6,-12.0,21.6,9.7,-11.6,5.43,2.00,-12.5,28.1
2015-10-08 01:09:00,0.0,1.93930,0.00043,398.708,0.050,0.3223,0.0017,139.999,45.000,31891.80320,1.94552,400.268,36.500,45.067,45.000,0.00,0.09,-272.74,-272.80,-8,527,-953,21.4,9.6,-11.9,21.7,9.7,-11.7,5.73,1.84,-6.4,28.1
2015-10-08 01:10:00,0.0,1.93921,0.00071,398.687,0.081,0.3232,0.0020,139.998,45.000,31891.60174,1.94537,400.249,36.502,45.067,45.000,0.00,0.09,-272.74,-272.79,-8,526,-953,21.4,9.6,-11.9,21.6,9.7,-11.7,5.73,2.06,-6.4,28.1
2015-10-08 01:11:00,0.0,1.93942,0.00070,398.657,0.087,0.3216,0.0023,139.999,45.000,31891.24673,1.94563,400.214,36.500,45.067,45.000,0.00,0.09,-272.75,-272.81,-9,527,-953,21.4,9.6,-12.0,21.7,9.7,-11.6,5.73,2.11,-6.5,28.1
2015-10-08 01:12:00,0.0,1.93942,0.00059,398.623,0.066,0.3211,0.0016,140.001,45.000,31891.37781,1.94565,400.179,36.498,45.067,45.000,0.00,0.09,-272.74,-272.81,-9,526,-953,21.4,9.6,-11.9,21.6,9.7,-11.7,5.73,1.90,-6.4,28.1
2015-10-08 01:13:00,0.0,1.93935,0.00057,398.602,0.049,0.3209,0.0016,139.999,45.000,31891.01320,1.94555,400.153,36.497,45.067,45.000,0.00,0.09,-272.73,-272.80,-9,527,-953,21.4,9.6,-12.0,21.7,9.7,-11.7,5.73,1.81,-6.4,28.1
2015-10-08 01:14:00,0.0,1.93959,0.00050,398.562,0.055,0.3215,0.0018,140.005,45.000,31891.01870,1.94573,400.116,36.486,45.068,45.000,0.00,0.09,-272.74,-272.80,-8,527,-953,21.4,9.6,-12.0,21.7,9.7,-11.7,5.73,1.98,-6.4,28.0
2015-10-08 01:15:00,0.0,1.93930,0.00039,398.538,0.042,0.3209,0.0020,140.000,45.000,31890.01589,1.94549,400.092,36.475,45.068,45.000,0.00,0.09,-272.75,-272.81,-8,527,-953,21.5,9.6,-11.9,21.7,9.7,-11.7,5.73,2.13,-6.4,28.1
2015-10-08 01:16:00,0.0,1.93890,0.00032,398.433,0.038,0.3232,0.0017,140.000,45.000,31889.41008,1.94513,399.995,36.492,45.068,45.000,0.00,0.09,-272.74,-272.80,-8,526,-953,21.5,9.6,-11.9,21.7,9.7,-11.7,5.73,1.98,-6.4,28.1
2015-10-08 01:17:00,0.0,1.93953,0.00054,398.477,0.051,0.3223,0.0018,139.998,45.000,31889.72866,1.94572,400.038,36.491,45.068,45.000,0.00,0.09,-272.74,-272.80,-9,527,-953,21.5,9.6,-11.9,21.7,9.7,-11.7,5.73,1.81,-6.4,28.1
2015-10-08 01:18:00,0.0,1.93960,0.00053,398.514,0.033,0.3216,0.0019,139.996,45.000,31888.64252,1.94578,400.067,36.474,45.068,45.000,0.00,0.09,-272.75,-272.80,-9,527,-953,21.5,9.6,-11.9,21.7,9.7,-11.6,5.73,1.91,-6.4,28.1
2015-10-08 01:19:00,0.0,1.93972,0.00039,398.631,0.099,0.3219,0.0019,140.001,45.000,31890.10711,1.94593,400.184,36.459,45.068,45.000,0.00,0.09,-272.75,-272.80,-9,527,-953,21.5,9.6,-11.9,21.7,9.7,-11.6,5.73,2.11,-6.4,28.2
2015-10-08 01:20:00,0.0,1.94010,0.00034,398.833,0.073,0.3208,0.0023,139.999,45.000,31889.74065,1.94629,400.387,36.463,45.068,45.000,0.00,0.09,-272.74,-272.80,-8,527,-953,21.5,9.6,-11.9,21.7,9.7,-11.7,5.73,2.05,-6.4,28.2
2015-10-08 01:21:00,0.0,1.93984,0.00048,398.735,0.082,0.3228,0.0021,140.001,45.000,31891.61612,1.94607,400.295,36.493,45.068,45.000,0.00,0.09,-272.74,-272.80,-8,527,-953,21.5,9.6,-11.9,21.7,9.7,-11.7,5.73,1.84,-6.4,28.2
2015-10-08 01:22:00,0.0,1.94011,0.00055,398.743,0.053,0.3221,0.0013,140.001,45.000,31890.31647,1.94631,400.300,36.500,45.068,45.000,0.00,0.09,-272.74,-272.80,-8,527,-953,21.5,9.6,-11.9,21.7,9.7,-11.7,5.73,1.86,-6.4,28.2
2015-10-08 01:23:00,0.0,1.93988,0.00055,398.748,0.043,0.3223,0.0021,139.999,45.000,31889.43862,1.94608,400.308,36.500,45.068,45.000,0.00,0.09,-272.74,-272.79,-9,527,-953,21.4,9.6,-11.9,21.7,9.7,-11.6,5.73,2.08,-6.4,28.2
2015-10-08 01:24:00,0.0,1.93994,0.00055,398.710,0.051,0.3224,0.0022,139.999,45.000,31890.21222,1.94617,400.270,36.500,45.068,45.000,0.00,0.09,-272.74,-272.80,-9,527,-953,21.4,9.6,-11.9,21.7,9.7,-11.6,5.73,2.08,-6.4,28.1
2015-10-08 01:25:00,0.0,1.93954,0.00053,398.671,0.061,0.3237,0.0015,140.000,45.000,31891.95774,1.94574,400.236,36.502,45.068,45.000,0.00,0.09,-272.74,-272.81,-8,527,-953,21.4,9.6,-11.9,21.7,9.7,-11.6,5.73,1.87,-6.4,28.1
2015-10-08 01:26:00,0.0,1.93962,0.00066,398.659,0.089,0.3235,0.0020,139.999,45.000,31891.72463,1.94591,400.228,36.501,45.068,45.000,0.00,0.09,-272.73,-272.80,-8,527,-953,21.5,9.6,-11.9,21.6,9.7,-11.7,5.73,1.83,-6.4,28.1
2015-10-08 01:27:00,0.0,1.93950,0.00039,398.603,0.036,0.3234,0.0019,140.001,45.000,31892.09337,1.94572,400.166,36.502,45.068,45.000,0.00,0.09,-272.74,-272.80,-8,527,-953,21.4,9.7,-11.9,21.7,9.7,-11.6,5.73,2.02,-6.4,28.1
2015-10-08 01:28:00,0.0,1.93931,0.00041,398.675,0.037,0.3259,0.0020,139.999,45.000,31890.27499,1.94558,400.250,36.500,45.068,45.000,0.00,0.09,-272.74,-272.81,-9,527,-953,21.5,9.7,-11.8,21.7,9.7,-11.6,5.73,2.12,-6.4,28.1
2015-10-08 01:29:00,0.0,1.93950,0.00046,398.696,0.043,0.3262,0.0015,140.000,45.000,31889.44370,1.94578,400.274,36.500,45.068,45.000,0.00,0.09,-272.74,-272.80,-9,527,-953,21.5,9.7,-11.8,21.7,9.8,-11.5,5.73,1.95,-6.4,28.1
2015-10-08 01:30:00,0.0,1.94023,0.00037,398.799,0.045,0.3246,0.0017,139.997,45.000,31889.71461,1.94646,400.369,36.497,45.068,45.000,0.00,0.09,-272.74,-272.80,-9,527,-953,21.5,9.7,-11.8,21.7,9.7,-11.6,5.73,1.81,-6.4,28.1
2015-10-08 01:31:00,0.0,1.94041,0.00046,398.761,0.068,0.3238,0.0021,140.001,45.000,31890.15290,1.94663,400.329,36.498,45.068,45.000,0.00,0.09,-272.75,-272.80,-8,527,-953,21.5,9.7,-11.8,21.7,9.8,-11.6,5.73,1.94,-6.4,28.1
2015-10-08 01:32:00,0.0,1.94035,0.00041,398.658,0.085,0.3253,0.0018,140.001,45.000,31892.48116,1.94661,400.234,36.483,45.068,45.000,0.00,0.09,-272.75,-272.80,-8,527,-953,21.5,9.7,-11.8,21.7,9.8,-11.6,5.73,2.12,-6.4,28.1
2015-10-08 01:33:00,0.0,1.94085,0.00046,398.664,0.062,0.3249,0.0014,139.999,45.000,31892.18770,1.94712,400.235,36.488,45.068,45.000,0.00,0.09,-272.74,-272.80,-8,527,-953,21.5,9.7,-11.8,21.7,9.8,-11.5,5.73,2.03,-6.4,28.1
2015-10-08 01:34:00,0.0,1.94060,0.00044,398.494,0.089,0.3249,0.0017,139.998,45.000,31892.88981,1.94686,400.069,36.484,45.068,45.000,0.00,0.09,-272.74,-272.81,-9,527,-953,21.5,9.7,-11.7,21.8,9.8,-11.5,5.73,1.83,-6.4,28.1
2015-10-08 01:35:00,0.0,1.94057,0.00044,398.381,0.037,0.3272,0.0019,140.001,45.000,31891.66381,1.94689,399.963,36.479,45.068,45.000,0.00,0.09,-272.74,-272.81,-9,527,-953,21.5,9.8,-11.7,21.7,9.8,-11.5,5.73,1.86,-6.4,28.1
2015-10-08 01:36:00,0.0,1.94020,0.00045,398.383,0.031,0.3289,0.0014,140.001,45.000,31894.26760,1.94656,399.973,36.498,45.068,45.000,0.00,0.09,-272.74,-272.79,-9,527,-953,21.5,9.8,-11.7,21.7,9.9,-11.4,5.73,2.08,-6.4,28.1
2015-10-08 01:37:00,0.0,1.94030,0.00040,398.478,0.052,0.3281,0.0017,139.997,45.000,31893.64074,1.94659,400.064,36.499,45.068,45.000,0.00,0.09,-272.73,-272.80,-8,527,-953,21.5,9.8,-11.6,21.7,9.8,-11.5,5.73,2.09,-6.4,28.1
2015-10-08 01:38:00,0.0,1.94087,0.00031,398.452,0.042,0.3275,0.0017,139.999,45.000,31893.46457,1.94716,400.035,36.494,45.068,45.000,0.00,0.09,-272.74,-272.81,-8,527,-953,21.5,9.7,-11.7,21.7,9.8,-11.5,5.73,1.89,-6.4,28.1
2015-10-08 01:39:00,0.0,1.94114,0.00038,398.333,0.059,0.3285,0.0022,140.000,45.000,31893.73935,1.94749,399.924,36.486,45.068,45.000,0.00,0.09,-272.75,-272.80,-8,527,-953,21.5,9.8,-11.7,21.7,9.8,-11.4,5.73,1.82,-6.4,28.1
2015-10-08 01:40:00,0.0,1.94073,0.00033,398.294,0.033,0.3293,0.0020,139.999,45.000,31893.96420,1.94708,399.885,36.464,45.068,45.000,0.00,0.09,-272.74,-272.80,-9,527,-953,21.5,9.7,-11.7,21.7,9.9,-11.3,5.73,2.00,-6.4,28.1
2015-10-08 01:41:00,0.0,1.94090,0.00052,398.338,0.072,0.3304,0.0018,140.001,45.000,31892.59916,1.94727,399.932,36.444,45.068,45.000,0.00,0.09,-272.74,-272.81,-9,527,-953,21.5,9.8,-11.7,21.7,9.9,-11.4,5.73,2.12,-6.4,28.1
2015-10-08 01:42:00,0.0,1.94131,0.00049,398.518,0.041,0.3294,0.0016,139.998,45.000,31892.23365,1.94762,400.110,36.438,45.068,45.000,0.00,0.09,-272.74,-272.81,-9,527,-953,21.5,9.8,-11.6,21.7,9.9,-11.4,5.73,1.97,-6.4,28.1
2015-10-08 01:43:00,0.0,1.94118,0.00056,398.506,0.051,0.3303,0.0014,140.001,45.000,31892.85451,1.94757,400.103,36.438,45.068,45.000,0.00,0.09,-272.74,-272.80,-8,527,-953,21.5,9.8,-11.7,21.7,9.9,-11.4,5.73,1.81,-6.4,28.2
2015-10-08 01:44:00,0.0,1.94102,0.00035,398.479,0.048,0.3307,0.0012,140.000,45.000,31894.50154,1.94740,400.079,36.438,45.068,45.000,0.00,0.09,-272.74,-272.80,-8,527,-953,21.5,9.8,-11.6,21.7,9.9,-11.4,5.73,1.93,-6.4,28.2
2015-10-08 01:45:00,0.0,1.94082,0.00047,398.519,0.037,0.3319,0.0016,140.000,45.000,31895.55723,1.94721,400.123,36.440,45.068,45.000,0.00,0.09,-272.75,-272.80,-8,527,-953,21.5,9.9,-11.6,21.8,9.9,-11.3,5.73,2.11,-6.4,28.2